FRS28 EDWN-EDLS

Flight info

Callsign FRS28
Flight time 0h 12m
Altitude 1500
Route DIRECT
Aircraft IMPU/L-V/N

Departure

Time 2026-04-12 15:30
Airport Flugplatz Nordhorn-Lingen (EDWN)

Arrival

Time 2026-04-12 15:42
Airport Stadtlohn-Vreden Airfield (EDLS)
Time Latitude Longitude Altitude Speed Heading
2026-04-12 15:22 52.45839 7.17554 89 ft 0 kts 320°
2026-04-12 15:24 52.45840 7.17550 89 ft 2 kts 236°
2026-04-12 15:24 52.45811 7.17542 88 ft 10 kts 140°
2026-04-12 15:25 52.45784 7.17551 92 ft 6 kts 189°
2026-04-12 15:25 52.45724 7.17559 89 ft 8 kts 172°
2026-04-12 15:25 52.45675 7.17579 89 ft 6 kts 159°
2026-04-12 15:25 52.45647 7.17579 90 ft 4 kts 199°
2026-04-12 15:26 52.45600 7.17559 89 ft 9 kts 176°
2026-04-12 15:26 52.45547 7.17607 91 ft 7 kts 137°
2026-04-12 15:26 52.45575 7.17726 92 ft 20 kts 53°
2026-04-12 15:26 52.45659 7.17920 89 ft 18 kts 55°
2026-04-12 15:27 52.45722 7.18066 90 ft 15 kts 55°
2026-04-12 15:27 52.45785 7.18212 90 ft 17 kts 54°
2026-04-12 15:27 52.45846 7.18355 92 ft 13 kts 55°
2026-04-12 15:27 52.45914 7.18515 91 ft 13 kts 54°
2026-04-12 15:28 52.45977 7.18661 92 ft 14 kts 54°
2026-04-12 15:28 52.46014 7.18752 91 ft 5 kts 78°
2026-04-12 15:28 52.46007 7.18784 90 ft 5 kts 132°
2026-04-12 15:28 52.45975 7.18797 92 ft 7 kts 219°
2026-04-12 15:29 52.45955 7.18754 93 ft 0 kts 234°
2026-04-12 15:29 52.45938 7.18710 94 ft 38 kts 236°
2026-04-12 15:29 52.45535 7.17846 321 ft 126 kts 219°
2026-04-12 15:30 52.44576 7.17929 692 ft 165 kts 156°
2026-04-12 15:30 52.43472 7.18799 901 ft 186 kts 162°
2026-04-12 15:30 52.42137 7.19030 946 ft 198 kts 181°
2026-04-12 15:30 52.40766 7.18958 1244 ft 194 kts 185°
2026-04-12 15:31 52.39414 7.18806 1315 ft 202 kts 183°
2026-04-12 15:31 52.37990 7.18741 1295 ft 208 kts 183°
2026-04-12 15:31 52.36525 7.18814 1255 ft 204 kts 179°
2026-04-12 15:31 52.35138 7.18900 1301 ft 199 kts 179°
2026-04-12 15:32 52.33738 7.19015 1228 ft 203 kts 178°
2026-04-12 15:32 52.32333 7.19208 1120 ft 204 kts 179°
2026-04-12 15:32 52.30912 7.19182 1051 ft 204 kts 184°
2026-04-12 15:32 52.29500 7.18925 1052 ft 201 kts 190°
2026-04-12 15:33 52.28129 7.18535 1049 ft 203 kts 192°
2026-04-12 15:33 52.26741 7.18062 1018 ft 204 kts 193°
2026-04-12 15:33 52.25464 7.17281 1185 ft 196 kts 216°
2026-04-12 15:33 52.24344 7.15871 1198 ft 206 kts 217°
2026-04-12 15:34 52.23114 7.14646 930 ft 215 kts 209°
2026-04-12 15:34 52.21828 7.13329 454 ft 209 kts 210°
2026-04-12 15:34 52.20557 7.12335 374 ft 202 kts 200°
2026-04-12 15:34 52.19236 7.11544 423 ft 194 kts 202°
2026-04-12 15:35 52.18227 7.10443 1303 ft 180 kts 221°
2026-04-12 15:35 52.17164 7.09086 1168 ft 203 kts 214°
2026-04-12 15:35 52.15979 7.07836 1169 ft 207 kts 212°
2026-04-12 15:35 52.14723 7.06655 1180 ft 208 kts 207°
2026-04-12 15:36 52.13394 7.05694 1265 ft 206 kts 201°
2026-04-12 15:36 52.12077 7.04833 1457 ft 203 kts 204°
2026-04-12 15:36 52.10844 7.03712 1415 ft 204 kts 213°
2026-04-12 15:36 52.09809 7.02243 1359 ft 195 kts 228°
2026-04-12 15:37 52.08933 7.00616 1273 ft 192 kts 226°
2026-04-12 15:37 52.07963 6.99095 1139 ft 189 kts 220°
2026-04-12 15:37 52.06981 6.97768 1153 ft 179 kts 219°
2026-04-12 15:37 52.06033 6.96537 1180 ft 170 kts 219°
2026-04-12 15:38 52.05147 6.95300 1154 ft 167 kts 219°
2026-04-12 15:38 52.04177 6.94131 1196 ft 179 kts 214°
2026-04-12 15:38 52.03236 6.93168 1152 ft 150 kts 211°
2026-04-12 15:38 52.02403 6.92438 1227 ft 122 kts 206°
2026-04-12 15:39 52.01735 6.91875 1392 ft 91 kts 207°
2026-04-12 15:39 52.01251 6.91458 1323 ft 75 kts 209°
2026-04-12 15:39 52.00800 6.91033 1181 ft 74 kts 208°
2026-04-12 15:39 52.00369 6.90594 1023 ft 72 kts 210°
2026-04-12 15:40 51.99935 6.90162 919 ft 80 kts 208°
2026-04-12 15:40 51.99602 6.89857 859 ft 84 kts 208°
2026-04-12 15:40 51.99030 6.89034 786 ft 83 kts 245°
2026-04-12 15:40 51.98971 6.88469 704 ft 73 kts 258°
2026-04-12 15:41 51.99004 6.87658 507 ft 70 kts 273°
2026-04-12 15:41 51.99104 6.86875 374 ft 77 kts 277°
2026-04-12 15:41 51.99229 6.86091 265 ft 70 kts 279°
2026-04-12 15:41 51.99353 6.85355 182 ft 60 kts 279°
2026-04-12 15:42 51.99443 6.84778 158 ft 48 kts 289°
2026-04-12 15:42 51.99491 6.84543 160 ft 18 kts 303°
2026-04-12 15:42 51.99536 6.84602 159 ft 11 kts 78°
2026-04-12 15:43 51.99540 6.84661 159 ft 0 kts 196°
2026-04-12 15:43 51.99540 6.84662 159 ft 0 kts 196°
2026-04-12 15:43 51.99540 6.84661 159 ft 0 kts 196°